Precipitable_Water
1.28 1.33 1.31 1.29 1.25 1.27 1.29 1.23 1.19 1.17 1.12 1.16 1.20 1.20 1.11 0.95 0.90 0.88 0.88 0.85 0.80 0.73 0.69 0.67 0.65 0.65 0.65 0.65 0.64 0.59 0.58 0.59 0.64 0.80 0.83 0.93 0.93 0.93 0.90 0.88 0.86 0.91 0.99
1.35 1.43 1.33 1.28 1.25 1.27 1.29 1.21 1.19 1.16 1.26 1.38 1.25 1.03 0.93 0.83 0.77 0.73 0.72 0.70 0.67 0.64 0.62 0.62 0.62 0.63 0.63 0.63 0.60 0.59 0.57 0.57 0.66 0.73 0.78 0.82 0.86 0.84 0.81 0.83 0.83 0.82 0.83
1.38 1.45 1.30 1.28 1.29 1.27 1.28 1.25 1.22 1.39 1.48 1.35 1.09 0.91 0.80 0.71 0.65 0.63 0.62 0.64 0.63 0.63 0.62 0.61 0.61 0.61 0.60 0.58 0.59 0.58 0.60 0.59 0.62 0.64 0.69 0.73 0.77 0.76 0.76 0.80 0.81 0.78 0.71
1.50 1.45 1.30 1.30 1.32 1.25 1.31 1.28 1.45 1.57 1.40 1.18 0.99 0.80 0.72 0.67 0.63 0.62 0.62 0.62 0.63 0.62 0.61 0.59 0.59 0.58 0.58 0.60 0.58 0.58 0.56 0.56 0.56 0.55 0.58 0.64 0.70 0.75 0.81 0.83 0.98 0.98 0.95
1.60 1.46 1.35 1.40 1.32 1.32 1.34 1.39 1.66 1.47 1.22 1.08 0.87 0.73 0.67 0.64 0.62 0.62 0.62 0.64 0.62 0.61 0.60 0.57 0.57 0.59 0.63 0.59 0.59 0.57 0.55 0.54 0.54 0.56 0.61 0.68 0.77 0.89 0.95 0.88 0.87 0.90 0.91
1.61 1.56 1.56 1.45 1.35 1.35 1.44 1.51 1.57 1.25 1.04 0.95 0.77 0.67 0.64 0.63 0.63 0.64 0.62 0.63 0.62 0.60 0.59 0.60 0.64 0.65 0.63 0.61 0.61 0.59 0.56 0.58 0.61 0.66 0.68 0.74 0.80 0.80 0.76 0.75 0.75 0.81 0.83
1.57 1.62 1.63 1.45 1.43 1.40 1.56 1.57 1.36 1.09 0.96 0.81 0.68 0.64 0.63 0.63 0.62 0.62 0.62 0.62 0.61 0.62 0.63 0.66 0.65 0.65 0.65 0.62 0.59 0.57 0.57 0.61 0.66 0.71 0.75 0.78 0.78 0.78 0.77 0.77 0.75 0.74 0.74
1.58 1.59 1.59 1.48 1.49 1.50 1.55 1.48 1.19 1.01 0.86 0.71 0.64 0.64 0.64 0.62 0.62 0.63 0.62 0.60 0.62 0.63 0.63 0.64 0.65 0.66 0.64 0.60 0.56 0.58 0.62 0.65 0.68 0.70 0.73 0.79 0.81 0.79 0.77 0.75 0.84 0.88 0.93
1.66 1.55 1.49 1.55 1.54 1.53 1.55 1.37 1.11 0.91 0.76 0.66 0.65 0.65 0.63 0.63 0.61 0.61 0.62 0.65 0.63 0.62 0.62 0.63 0.63 0.64 0.62 0.59 0.55 0.60 0.67 0.69 0.70 0.75 0.80 0.76 0.75 0.76 0.80 0.90 1.01 1.03 0.95
1.62 1.54 1.48 1.56 1.51 1.54 1.49 1.27 1.03 0.82 0.67 0.66 0.66 0.62 0.61 0.60 0.62 0.63 0.63 0.62 0.62 0.61 0.62 0.63 0.64 0.66 0.60 0.58 0.55 0.63 0.73 0.75 0.80 0.79 0.83 0.80 0.81 0.85 0.93 1.05 0.95 0.93 0.88
1.53 1.52 1.51 1.46 1.47 1.46 1.38 1.26 0.98 0.73 0.65 0.64 0.60 0.56 0.57 0.59 0.59 0.59 0.59 0.59 0.60 0.61 0.62 0.64 0.66 0.64 0.61 0.59 0.57 0.71 0.75 0.85 0.90 0.89 0.87 0.87 0.90 0.97 1.05 0.94 0.89 0.84 0.79
1.33 1.37 1.37 1.40 1.42 1.35 1.31 1.21 0.88 0.68 0.63 0.60 0.51 0.51 0.52 0.52 0.52 0.55 0.59 0.61 0.64 0.62 0.61 0.61 0.65 0.62 0.58 0.57 0.58 0.73 0.80 0.89 0.94 0.94 0.94 1.00 1.07 1.07 0.94 0.87 0.82 0.78 0.73
1.33 1.34 1.39 1.39 1.30 1.30 1.27 1.07 0.75 0.59 0.55 0.50 0.47 0.46 0.47 0.49 0.49 0.50 0.52 0.53 0.54 0.56 0.56 0.57 0.58 0.57 0.57 0.57 0.58 0.70 0.77 0.86 0.92 0.95 1.04 1.06 1.09 0.96 0.90 0.83 0.77 0.71 0.70
1.44 1.46 1.43 1.34 1.34 1.29 1.24 0.95 0.67 0.52 0.49 0.45 0.45 0.46 0.46 0.45 0.46 0.46 0.48 0.51 0.52 0.54 0.54 0.56 0.57 0.58 0.59 0.59 0.60 0.68 0.74 0.80 0.89 0.95 1.01 1.07 1.06 0.97 0.90 0.85 0.79 0.75 0.69
1.49 1.42 1.30 1.31 1.36 1.27 1.17 0.90 0.64 0.50 0.47 0.46 0.45 0.47 0.48 0.45 0.45 0.47 0.48 0.50 0.52 0.55 0.56 0.56 0.57 0.58 0.58 0.59 0.60 0.63 0.70 0.72 0.80 0.86 0.92 0.93 0.93 0.90 0.86 0.82 0.76 0.75 0.72
1.55 1.40 1.31 1.37 1.35 1.24 1.11 0.88 0.66 0.52 0.49 0.47 0.47 0.47 0.49 0.48 0.46 0.48 0.49 0.51 0.53 0.57 0.59 0.59 0.58 0.57 0.58 0.60 0.60 0.62 0.62 0.65 0.67 0.74 0.78 0.80 0.81 0.80 0.79 0.77 0.72 0.73 0.71
1.56 1.49 1.42 1.37 1.35 1.19 1.07 0.90 0.76 0.59 0.49 0.48 0.47 0.49 0.50 0.51 0.50 0.51 0.52 0.53 0.55 0.59 0.59 0.59 0.59 0.59 0.59 0.61 0.60 0.61 0.60 0.61 0.59 0.58 0.62 0.68 0.72 0.72 0.71 0.68 0.68 0.68 0.67
1.49 1.51 1.40 1.44 1.34 1.18 1.05 0.94 0.86 0.73 0.56 0.50 0.50 0.51 0.51 0.53 0.56 0.58 0.57 0.56 0.58 0.60 0.59 0.58 0.57 0.56 0.58 0.57 0.55 0.57 0.57 0.59 0.59 0.58 0.57 0.57 0.59 0.62 0.62 0.60 0.60 0.64 0.63
1.39 1.62 1.51 1.44 1.31 1.17 1.06 1.00 0.92 0.79 0.65 0.57 0.54 0.53 0.55 0.58 0.64 0.64 0.62 0.62 0.60 0.57 0.58 0.58 0.57 0.56 0.52 0.53 0.53 0.55 0.56 0.54 0.56 0.58 0.58 0.59 0.60 0.60 0.59 0.57 0.54 0.53 0.58
1.55 1.47 1.62 1.53 1.36 1.20 1.10 1.04 0.99 0.88 0.73 0.64 0.58 0.57 0.59 0.64 0.69 0.70 0.68 0.63 0.57 0.54 0.54 0.55 0.53 0.55 0.53 0.53 0.53 0.53 0.54 0.53 0.54 0.54 0.55 0.57 0.59 0.60 0.60 0.59 0.58 0.57 0.56
1.45 1.50 1.51 1.54 1.47 1.25 1.07 1.00 1.01 0.94 0.80 0.66 0.61 0.61 0.63 0.68 0.72 0.71 0.69 0.63 0.58 0.52 0.51 0.52 0.52 0.50 0.51 0.55 0.50 0.50 0.51 0.51 0.51 0.50 0.51 0.51 0.52 0.57 0.60 0.60 0.59 0.57 0.56
1.39 1.43 1.49 1.49 1.49 1.42 1.16 1.06 1.04 1.06 0.93 0.73 0.65 0.64 0.67 0.71 0.74 0.72 0.69 0.65 0.61 0.55 0.53 0.50 0.47 0.46 0.49 0.54 0.44 0.44 0.36 0.43 0.48 0.49 0.49 0.48 0.50 0.53 0.56 0.60 0.59 0.57 0.55
1.15 1.26 1.32 1.46 1.45 1.41 1.34 1.13 1.07 1.08 1.02 0.82 0.71 0.67 0.70 0.74 0.77 0.74 0.72 0.68 0.64 0.58 0.52 0.50 0.48 0.45 0.41 0.49 0.50 0.40 0.32 0.29 0.39 0.47 0.47 0.47 0.49 0.52 0.56 0.58 0.58 0.56 0.55
1.03 1.13 1.22 1.27 1.33 1.44 1.38 1.23 1.04 1.02 1.02 0.96 0.82 0.75 0.77 0.84 0.84 0.83 0.78 0.74 0.68 0.62 0.56 0.51 0.49 0.45 0.44 0.39 0.45 0.46 0.42 0.42 0.33 0.31 0.44 0.46 0.49 0.50 0.53 0.54 0.54 0.56 0.57
0.97 0.99 1.04 1.10 1.24 1.39 1.35 1.28 1.10 1.04 1.19 1.10 1.01 0.89 0.87 0.94 0.94 0.93 0.91 0.87 0.79 0.71 0.63 0.56 0.50 0.48 0.47 0.42 0.42 0.40 0.41 0.41 0.41 0.35 0.31 0.37 0.46 0.51 0.54 0.54 0.55 0.55 0.55
0.94 0.99 1.00 0.94 0.99 1.12 1.24 1.31 1.23 1.11 1.18 1.17 1.04 0.98 0.95 0.96 0.95 0.93 0.92 0.91 0.91 0.83 0.68 0.59 0.54 0.50 0.47 0.46 0.44 0.42 0.39 0.35 0.34 0.34 0.33 0.36 0.38 0.45 0.51 0.53 0.53 0.54 0.54
Wind_Speed
19 21 21 20 18 17 16 15 15 14 13 12 11 11 10 10 10 9 9 8 7 7 7 7 7 7 7 7 6 6 6 6 7 8 9 9 10 11 12 12 11 11 11
20 23 23 21 20 18 17 16 16 14 13 12 11 10 9 9 9 8 8 7 7 7 7 7 6 6 6 5 5 6 6 7 7 8 8 10 11 12 12 12 12 11 12
21 23 24 23 21 19 18 17 16 14 14 12 11 10 10 9 9 8 7 6 6 6 6 6 6 5 5 5 5 5 6 6 7 7 8 10 12 13 13 12 13 13 13
21 24 25 24 22 21 19 18 17 16 14 12 11 10 10 10 9 8 7 6 6 6 6 5 5 5 4 5 5 5 5 6 7 7 9 10 12 13 12 12 14 14 14
23 24 26 25 23 22 20 19 18 16 14 13 11 11 11 10 9 8 7 6 6 6 6 5 5 5 5 5 5 5 5 6 7 8 9 11 12 12 12 14 14 14 15
25 25 27 26 24 23 21 20 19 16 14 13 12 12 11 10 9 8 7 7 7 6 6 5 5 5 5 5 5 5 5 6 7 8 10 11 12 11 12 14 14 14 15
26 27 27 26 25 24 23 21 19 17 15 14 13 12 11 10 9 8 8 7 7 7 6 6 5 5 4 4 4 5 5 6 7 8 10 11 11 11 13 14 14 15 15
27 27 27 27 26 25 23 21 19 17 16 14 13 13 12 11 10 9 8 8 8 7 6 5 5 4 4 3 3 4 5 6 7 9 10 11 10 11 13 14 14 14 15
29 28 28 27 27 26 24 22 20 18 16 15 14 13 12 11 10 10 9 8 8 7 6 5 4 4 3 3 3 4 5 6 7 8 10 10 10 11 12 13 14 14 15
31 29 28 28 28 26 24 22 21 19 17 16 15 14 13 12 11 10 9 8 8 7 6 5 5 4 2 2 3 3 4 5 7 8 9 9 9 11 12 13 14 14 15
32 30 30 29 29 27 25 23 21 20 18 17 15 15 14 13 12 11 10 8 8 7 6 5 5 4 3 2 3 3 4 5 6 7 8 8 9 11 12 13 14 14 15
34 32 31 31 30 28 26 24 23 21 19 18 16 16 15 14 13 11 10 9 8 7 6 5 5 4 2 1 1 2 3 6 6 6 7 7 8 10 12 13 13 14 15
35 33 33 33 32 30 27 25 24 22 21 19 18 17 16 14 13 12 11 9 8 7 6 6 5 4 2 1 1 1 3 5 5 5 6 6 7 9 11 12 14 14 14
38 36 35 34 33 31 29 27 25 24 22 20 19 18 16 15 14 12 11 9 8 8 7 6 6 5 3 2 2 1 2 3 4 5 5 5 6 9 11 12 13 14 14
39 38 37 36 34 32 30 28 26 25 24 22 20 19 17 16 15 13 11 10 9 8 8 7 6 6 5 4 3 2 2 2 2 2 3 5 6 8 10 12 13 14 14
41 39 38 37 34 33 31 29 28 26 25 23 22 20 19 17 16 14 12 11 10 9 9 8 7 7 6 5 4 3 2 2 2 1 2 3 5 8 9 11 12 13 13
37 39 40 38 36 34 32 30 29 27 26 25 23 22 20 19 17 15 13 11 11 10 9 9 8 7 6 5 4 4 3 2 1 1 2 3 4 7 8 10 12 12 13
33 41 41 39 37 35 33 31 30 29 27 26 24 23 21 20 18 16 14 12 11 11 10 10 9 8 7 6 5 4 3 3 2 2 2 3 4 6 7 9 11 12 13
31 37 41 40 38 36 35 33 31 30 28 27 26 24 23 22 20 17 15 13 12 12 11 11 10 9 8 7 6 5 4 4 4 3 3 3 4 5 7 8 10 11 12
31 27 39 40 39 38 36 34 32 31 29 28 27 26 25 23 21 19 16 15 14 13 12 12 11 10 9 8 7 6 6 5 5 5 5 5 5 5 6 8 9 11 12
33 33 37 40 39 38 37 35 33 32 31 30 29 28 27 25 23 20 18 16 15 14 14 13 12 12 11 10 8 7 7 7 7 6 6 6 6 6 7 7 8 10 11
33 34 31 33 37 37 37 36 35 34 33 32 31 29 28 27 25 22 20 18 17 16 15 15 14 13 12 13 11 9 9 9 9 8 8 8 8 8 8 8 8 9 10
33 33 32 34 36 36 38 38 36 36 34 34 32 30 29 29 27 25 22 20 19 18 17 16 16 15 14 15 13 11 10 11 10 10 10 10 9 9 9 9 9 10 10
36 34 33 35 37 39 37 40 40 39 37 35 34 33 32 31 29 27 24 23 21 20 19 18 18 17 16 16 15 15 13 12 12 11 12 11 11 11 10 10 10 10 11
39 37 35 33 36 40 41 43 42 41 39 37 36 35 34 32 31 29 27 25 24 22 21 21 20 19 18 18 17 16 16 15 14 13 13 13 13 13 12 12 12 12 12
39 39 38 36 35 37 40 49 49 45 42 38 39 37 36 34 33 31 29 28 27 26 24 23 22 21 20 19 19 18 17 16 16 15 14 14 14 14 14 14 13 13 14
Wind_Direction
208 197 192 189 185 181 176 171 169 166 162 158 154 149 145 141 138 135 131 128 123 118 114 112 110 106 98 90 79 68 61 56 52 44 40 32 23 13 7 4 1 358 356
202 196 193 190 187 183 179 175 172 170 168 161 157 156 153 149 145 141 137 132 128 124 121 118 113 107 99 89 76 65 59 54 48 39 33 26 16 8 4 2 360 357 351
197 195 194 191 188 186 182 179 175 173 167 166 164 162 158 155 152 148 143 137 132 127 123 120 115 108 98 86 75 68 59 50 41 32 23 15 9 7 6 7 3 356 350
198 196 194 192 190 187 185 182 179 175 173 173 170 167 164 161 157 153 148 143 139 135 129 123 116 108 98 87 79 69 55 43 34 24 17 11 9 10 15 12 10 8 4
201 197 194 192 191 189 186 184 182 180 180 178 176 172 169 166 163 159 155 150 145 140 134 127 119 112 104 92 81 65 49 37 28 21 16 12 11 15 18 13 7 6 5
200 196 193 193 192 190 188 185 184 184 183 181 179 175 173 171 168 164 160 154 149 144 137 129 122 115 106 95 77 56 42 34 27 22 17 13 12 14 13 8 6 6 5
198 195 193 193 193 191 189 187 187 187 186 183 181 178 177 175 172 168 164 158 154 149 142 134 125 116 107 92 68 49 40 32 26 20 16 13 14 16 13 12 11 12 12
196 195 194 193 192 191 189 189 189 188 186 184 182 181 179 177 175 171 166 162 158 154 150 144 133 122 111 88 58 48 41 33 27 20 16 14 17 18 15 16 19 20 19
197 196 194 194 193 191 191 190 190 189 187 185 184 183 181 179 176 172 167 164 161 158 155 151 143 132 114 78 51 51 39 30 22 19 18 17 21 22 21 21 23 26 25
197 197 195 194 192 191 191 191 191 189 188 187 186 185 183 178 174 171 169 168 166 165 162 156 151 143 119 79 62 53 37 26 22 20 18 22 29 26 24 30 27 26 22
198 198 197 195 193 193 193 192 192 190 189 188 186 184 183 181 178 176 174 172 171 171 168 166 162 154 131 88 65 55 34 20 10 11 19 26 32 30 33 29 25 21 18
199 199 199 197 196 195 195 195 195 193 192 190 188 186 183 182 181 180 177 175 175 176 174 172 171 165 155 106 56 36 20 13 15 21 22 31 34 39 28 24 20 19 18
201 200 199 198 197 197 197 196 196 195 193 191 190 188 186 185 185 185 184 185 186 186 187 187 187 190 194 224 303 342 0 12 19 20 24 38 43 26 23 22 21 19 17
201 201 200 198 198 198 198 198 198 197 196 194 193 192 190 190 189 189 190 193 196 198 199 202 204 210 223 242 265 289 331 357 14 23 47 46 36 27 25 22 18 17 15
202 201 200 198 199 199 199 199 200 199 198 197 197 197 196 195 195 195 198 201 205 208 212 214 219 225 235 243 255 263 293 330 358 30 46 41 32 22 16 13 12 13 12
200 200 200 200 200 200 201 201 202 201 201 201 200 200 200 200 200 201 205 209 214 219 220 221 225 229 233 237 243 248 268 295 316 325 349 2 5 4 6 7 8 9 9
200 203 201 201 202 202 203 203 203 204 204 204 204 204 204 204 205 207 210 217 220 220 220 220 224 226 226 227 231 240 250 270 271 296 319 330 347 357 0 3 3 5 5
207 204 201 202 202 204 204 205 206 206 207 206 207 207 207 207 208 210 215 219 219 220 221 221 222 221 222 226 229 237 248 250 253 276 300 319 338 344 352 356 358 1 2
212 203 202 204 205 205 206 207 208 208 208 209 209 210 210 210 211 214 217 220 221 223 222 221 223 223 222 224 228 234 241 249 259 272 281 295 318 335 346 354 357 1 1
209 205 202 204 205 206 207 208 210 211 211 211 212 212 212 211 213 216 220 222 222 223 223 223 222 222 223 222 226 234 244 253 261 269 274 282 298 314 329 341 348 354 356
216 212 202 202 205 207 209 211 212 213 213 214 214 214 213 213 215 218 221 222 222 224 224 223 223 222 224 223 227 238 248 255 261 267 270 275 288 300 312 324 333 342 348
216 215 216 207 208 210 213 214 215 215 215 216 215 215 214 215 217 220 222 223 223 224 225 225 224 225 229 226 237 240 248 256 261 265 267 271 279 289 299 308 319 329 336
218 217 218 213 213 215 217 216 216 215 216 216 217 216 216 217 220 221 223 224 225 226 227 227 227 229 231 232 236 244 250 255 255 262 265 269 273 282 290 297 306 316 325
221 220 221 221 219 220 220 219 217 217 218 219 218 217 218 219 221 223 225 226 227 229 230 230 231 233 234 235 240 245 252 255 259 262 263 266 270 274 281 288 296 305 313
223 221 221 221 222 219 227 221 220 220 219 218 218 219 220 221 222 224 227 227 230 232 233 233 233 235 238 239 241 245 250 254 258 263 264 264 268 272 276 282 287 295 303
221 220 222 223 226 229 231 225 222 219 219 217 219 220 221 223 225 228 230 231 233 234 234 235 235 236 238 241 243 245 248 253 255 260 265 265 265 270 273 277 281 288 295